EW4092 Weather Reports


time (UTC)temp
F
wind
direction
speed
knots
gust
knots
rain 1hr
in
rain 24hr
in
rain mn
in
humidity
%
barometer
mb
20260505194533 82 281 0.0 2.6 0.00 0.00 0.00 25 1011.3
20260505193034 81 297 0.0 7.0 0.00 0.00 0.00 27 1011.4
20260505191537 81 200 2.6 7.8 0.00 0.00 0.00 26 1011.4
20260505190028 81 128 0.9 6.1 0.00 0.00 0.00 30 1011.4
20260505184528 80 226 2.6 8.7 0.00 0.00 0.00 29 1011.4
20260505183030 79 201 1.7 7.0 0.00 0.00 0.00 30 1011.6
20260505181524 79 222 1.7 7.0 0.00 0.00 0.00 32 1011.6
20260505180020 78 193 1.7 5.2 0.00 0.00 0.00 32 1011.6
20260505174517 77 148 2.6 8.7 0.00 0.00 0.00 34 1011.7
20260505173015 76 236 5.2 7.8 0.00 0.00 0.00 36 1011.7
20260505171512 76 150 0.9 8.7 0.00 0.00 0.00 37 1011.7
20260505170009 75 295 0.0 1.7 0.00 0.00 0.00 40 1011.8
20260505164506 73 92 0.0 2.6 0.00 0.00 0.00 41 1011.7
20260505163006 70 187 0.0 3.5 0.00 0.00 0.00 46 1011.8
20260505161509 69 134 0.0 4.3 0.00 0.00 0.00 44 1011.7
20260505153057 70 191 0.0 3.5 0.00 0.00 0.00 45 1011.6
20260505151554 69 193 0.9 4.3 0.00 0.00 0.00 46 1011.5
20260505150105 68 150 1.7 4.3 0.00 0.00 0.00 48 1011.4
20260505124548 61 148 0.0 1.7 0.00 0.00 0.00 53 1010.1
20260505123037 62 146 0.0 0.9 0.00 0.00 0.00 52 1010.0
20260505121538 62 124 0.0 3.5 0.00 0.00 0.00 51 1009.9
20260505120031 63 102 0.0 2.6 0.00 0.00 0.00 51 1009.7
20260505114531 63 110 0.0 1.7 0.00 0.00 0.00 50 1009.6
20260505113028 63 121 0.0 1.7 0.00 0.00 0.00 50 1009.4
20260505111525 64 113 0.0 2.6 0.00 0.00 0.00 49 1009.5
20260505101517 65 115 0.0 1.7 0.00 0.00 0.00 48 1008.8
20260505100018 64 135 0.0 1.7 0.00 0.00 0.00 50 1008.7
20260505094515 63 114 0.0 0.0 0.00 0.00 0.00 54 1008.6
20260505093014 63 114 0.0 0.0 0.00 0.00 0.00 53 1008.5
20260505091510 64 114 0.0 0.0 0.00 0.00 0.00 51 1008.5
20260505090017 64 114 0.0 0.0 0.00 0.00 0.00 50 1008.4
20260505084504 66 114 0.0 0.9 0.00 0.00 0.00 47 1008.4
20260505083001 68 114 0.0 0.9 0.00 0.00 0.00 44 1008.4
20260505081602 69 114 0.0 3.5 0.00 0.00 0.00 43 1008.2
20260505080100 67 126 0.0 2.6 0.00 0.00 0.00 44 1008.3
20260505074559 67 106 0.0 0.9 0.00 0.00 0.00 44 1008.3
20260505073054 69 105 0.0 0.9 0.00 0.00 0.00 43 1008.2
20260505071552 70 134 0.0 2.6 0.00 0.00 0.00 40 1008.0
20260505070046 71 128 0.0 7.0 0.00 0.00 0.00 39 1008.0
20260505064549 71 125 0.0 6.1 0.00 0.00 0.00 38 1007.8
20260505063045 71 183 0.0 5.2 0.00 0.00 0.00 38 1007.8
20260505061547 71 195 0.9 3.5 0.00 0.00 0.00 38 1007.8
20260505060048 72 162 0.0 3.5 0.00 0.00 0.00 37 1007.7
20260505054552 73 122 0.0 5.2 0.00 0.00 0.00 35 1007.6
20260505053043 74 110 0.9 11.3 0.00 0.00 0.00 34 1007.5
20260505051542 74 89 5.2 13.9 0.00 0.00 0.00 33 1007.3
20260505041540 76 131 2.6 11.3 0.00 0.00 0.00 31 1006.7
20260505040040 76 98 2.6 8.7 0.00 0.00 0.00 30 1006.5
20260505034539 77 127 3.5 13.0 0.00 0.00 0.00 30 1006.3
20260505033041 77 134 3.5 12.2 0.00 0.00 0.00 29 1006.1
20260505031551 78 163 2.6 9.6 0.00 0.00 0.00 28 1005.9
20260505030037 80 116 4.3 9.6 0.00 0.00 0.00 26 1005.7
20260505024546 81 115 5.2 14.8 0.00 0.00 0.00 25 1005.6
20260505023041 82 118 4.3 10.4 0.00 0.00 0.00 24 1005.5
20260505021536 83 121 4.3 13.0 0.00 0.00 0.00 24 1005.5
20260505020034 83 150 3.5 12.2 0.00 0.00 0.00 22 1005.4
20260505014551 84 188 4.3 11.3 0.00 0.00 0.00 21 1005.4
20260505013033 85 128 3.5 13.0 0.00 0.00 0.00 21 1005.4
20260505011536 90 96 2.6 6.1 0.00 0.00 0.00 19 1005.3
20260505010030 90 69 0.9 3.5 0.00 0.00 0.00 19 1005.4
20260505004528 88 46 0.9 4.3 0.00 0.00 0.00 21 1005.5
20260505003027 88 346 0.0 3.5 0.00 0.00 0.00 21 1005.5
20260505001526 89 32 2.6 4.3 0.00 0.00 0.00 19 1005.5
20260505000025 88 108 0.9 4.3 0.00 0.00 0.00 20 1005.6
20260504234524 88 311 0.9 4.3 0.00 0.00 0.00 19 1005.5
20260504233027 88 120 2.6 6.1 0.00 0.00 0.00 19 1005.7
20260504231521 87 263 0.0 3.5 0.00 0.00 0.00 19 1005.7
20260504230021 88 101 1.7 3.5 0.00 0.00 0.00 19 1005.9
20260504224520 88 75 2.6 6.1 0.00 0.00 0.00 19 1006.1
20260504223015 87 219 0.0 1.7 0.00 0.00 0.00 20 1006.2
20260504221512 86 104 1.7 3.5 0.00 0.00 0.00 20 1006.4
20260504220011 86 276 0.0 4.3 0.00 0.00 0.00 19 1006.7
20260504214508 86 58 3.5 7.0 0.00 0.00 0.00 19 1006.9
20260504213011 87 89 1.7 6.1 0.00 0.00 0.00 20 1007.0
20260504211513 85 79 0.9 4.3 0.00 0.00 0.00 21 1007.2
20260504210003 86 71 0.9 5.2 0.00 0.00 0.00 19 1007.4
20260504204501 86 352 1.7 5.2 0.00 0.00 0.00 21 1007.6
20260504203134 85 112 1.7 8.7 0.00 0.00 0.00 21 1007.7
20260504201557 85 107 0.9 5.2 0.00 0.00 0.00 20 1007.8
20260504200055 84 44 0.0 3.5 0.00 0.00 0.00 21 1008.1